Weather Roundup
Issued by NWS

Home | Current Version | Previous Version | Text Only | Print | Product List | Glossary On
Versions: 1 2 3 4 5 6 7 8 9 10 11 12 13 14 15 16 17 18 19 20 21 22 23 24 25 26 27 28 29 30 31 32 33 34 35 36 37 38 39 40 41 42 43 44 45 46 47 48 49 50
376
NZUS93 KARX 222210
HRRWXR

CURRENT HOURLY OBSERVATIONS ACROSS
MUCH OF THE UPPER MISSISSIPPI VALLEY
NATIONAL WEATHER SERVICE LA CROSSE WI
500 PM CDT MON MAY 22 2017


...SOUTHEAST MINNESOTA...


CITY           SKY/WX    TMP DP  RH WIND       PRES   REMARKS
ROCHESTER      MOSUNNY   64  47  53 W7        29.83F
ROCHESTER/MAYO MOCLDY    66  43  42 W6        29.83S
WINONA         PTSUNNY   70  46  43 NW7       29.82S
AUSTIN         PTSUNNY   66  45  45 SW6       29.81F
ALBERT LEA     MOSUNNY   68  45  42 SW3       29.81F
DODGE CENTER   MOSUNNY   66  43  42 SW8       29.82F
PRESTON        PTSUNNY   65  46  50 SW5       29.83F
OWATONNA       MOSUNNY   64  45  48 W3        29.83F
FARIBAULT      SUNNY     66  46  48 W9        29.83F
$$

...ELSEWHERE IN MINNESOTA...


CITY           SKY/WX    TMP DP  RH WIND       PRES   REMARKS
MINNEAPOLIS    MOSUNNY   66  42  41 NW13      29.81F
INTNL FALLS    LGT RAIN  49  43  80 NW9       29.79S
DULUTH         CLOUDY    53  44  71 W10       29.79S
RED WING       PTSUNNY   66  41  39 W7        29.80F
REDWOOD FALLS  CLOUDY    61  44  53 N12       29.83F
MANKATO        CLOUDY    63  45  51 NW8       29.83F
WORTHINGTON    MOSUNNY   61  52  72 W17       29.83R
FAIRMONT       PTSUNNY   66  44  45 NE7       29.80F
$$

...SOUTHWEST WISCONSIN...


CITY           SKY/WX    TMP DP  RH WIND       PRES   REMARKS
LA CROSSE      PTSUNNY   69  51  52 SW9       29.81S
PRAIRIE DU CHI CLOUDY    68  50  52 CALM      29.82F
BOSCOBEL       MOSUNNY   69  52  54 W6        29.84F
LONE ROCK      CLOUDY    66  52  60 SW6       29.84F
PLATTEVILLE    MOSUNNY   68  57  68 SW8       29.85F
FORT MC COY    MOSUNNY   67  47  48 SW7       29.82F
CAMP DOUGLAS   PTSUNNY   70  46  43 SW12      29.81F
MAUSTON-NEW LI PTCLDY    68  49  51 SW9       29.82S
VIROQUA        MOCLDY    65  51  59 N8        29.84F
WIS DELLS      CLOUDY    66  50  55 SW9G16    29.84F
$$

...ELSEWHERE IN WISCONSIN...


CITY           SKY/WX    TMP DP  RH WIND       PRES   REMARKS
MILWAUKEE      CLOUDY    65  49  56 S6        29.88F
MADISON        PTSUNNY   63  51  65 SW5       29.85F
GREEN BAY      PTSUNNY   68  50  52 SW14      29.79F
EAU CLAIRE     PTSUNNY   66  43  43 W14       29.80S
BLACK RVR FLS  FAIR      71  40  33 W12G17    29.80F
MEDFORD        PTSUNNY   58  42  54 W9        29.81S
WAUSAU         CLOUDY    62  43  49 W15       29.78S
WIS RAPIDS     MOSUNNY   70  43  37 W16G25    29.81S
MARSHFIELD     PTSUNNY   64  43  46 W13       29.80S
RICE LAKE      PTSUNNY   61  42  49 W10       29.83S
$$

...NORTHEAST IOWA...


CITY           SKY/WX    TMP DP  RH WIND       PRES   REMARKS
WATERLOO       CLOUDY    69  51  52 SW10      29.80F
DUBUQUE        CLOUDY    64  56  75 SW23G30   29.82F
DECORAH        PTSUNNY   68  50  52 VRB5      29.82F
MASON CITY     CLOUDY    67  49  52 NW5       29.82F
CHARLES CITY   MOSUNNY   68  54  60 SW9       29.82F
OELWEIN        CLOUDY    68  54  60 SW7       29.82F
$$

...ELSEWHERE IN IOWA...


CITY           SKY/WX    TMP DP  RH WIND       PRES   REMARKS
DES MOINES     CLOUDY    71  53  52 SW17      29.85F
IOWA CITY      CLOUDY    66  56  70 SW15G24   29.88F
FORT DODGE     MOSUNNY   72  50  46 W9        29.81F
MARSHALLTOWN   CLOUDY    68  55  63 SW16      29.82F
CEDAR RAPIDS   CLOUDY    67  58  72 SW16G23   29.84F
$$

...NORTHERN ILLINOIS...


CITY           SKY/WX    TMP DP  RH WIND       PRES   REMARKS
CHICAGO-OHARE  CLOUDY    71  40  32 SW18G25   29.89F
CHICAGO-MIDWAY PTSUNNY   74  42  31 SW22G28   29.90F
MOLINE         CLOUDY    66  54  65 SW14G25   29.90F
ROCKFORD       CLOUDY    70  49  47 SW18G29   29.89F
PEORIA         LGT RAIN  61  58  90 SW13      30.00R
$$

NOTE: "FAIR" INDICATES FEW OR NO CLOUDS BELOW 12,000 FEET WITH NO
SIGNIFICANT WEATHER AND/OR OBSTRUCTIONS TO VISIBILITY. WIND
SPEEDS ARE IN MILES-PER-HOUR.




USA.gov is the U.S. government's official web portal to all federal, state and local government web resources and services.